Flag Weather past 2 weeks in Washington DC, District of Columbia, U.S.A.

Now
55 °F

Mostly cloudy.


Feels Like: 54 °F
Forecast: 53 / 73 °F
Wind: 6 mph from South

Location: Reagan National Airport

Current Time: Nov 23, 2014 at 7:30:19 PM

Latest Report: Nov 23, 2014 at 6:52 PM


Visibility: 10 mi

Pressure: 30.05 "Hg

Humidity: 67%

Dew point: 44 °F

Location of Washington DCLocation

Historic Weather in Washington DC — Graph

°F

Washington DC temperature yesterday

Maximum temperature yesterday: 52 °F (at 2:52 PM)
Minimum temperature yesterday: 27 °F (at 4:52 AM)
Average temperature yesterday: 39 °F

Past Weeks' High & Low Weather Summary

 TemperatureHumidityPressure
High71 °F (Nov 11, 2:52 PM)90% (Nov 12, 5:52 AM)30.57 "Hg (Nov 12, 5:52 AM)
Low22 °F (Nov 19, 4:52 AM)23% (Nov 18, 2:52 PM)29.57 "Hg (Nov 17, 3:00 PM)
Average44 °F50%30.14 "Hg
* Reported Nov 8 5:52 PM — Nov 23 5:52 PM, Washington DC, Weather by CustomWeather, © 2014

Note: Actual official high and low records may vary slightly from our data, if they occured in-between our weather recording intervals... More about our weather records

Advertising

Washington DC weather history for previous 24 hours

 ConditionsComfort  
Time TempWeatherWind HumidityBarometerVisibility
5:52 PM
Nov 23
55 °FMostly cloudy.No wind55%30.06 "Hg10 mi
4:52 PM56 °FMostly cloudy.3 mph39%30.08 "Hg10 mi
3:52 PM57 °FMostly cloudy.No wind34%30.10 "Hg10 mi
2:52 PM55 °FMostly cloudy.3 mph40%30.11 "Hg10 mi
1:52 PM55 °FPartly sunny.7 mph35%30.13 "Hg10 mi
12:52 PM53 °FPartly sunny.5 mph35%30.16 "Hg10 mi
11:52 AM51 °FPartly sunny.7 mph35%30.19 "Hg10 mi
10:52 AM48 °FPartly sunny.5 mph41%30.22 "Hg10 mi
9:52 AM45 °FSunny.6 mph44%30.22 "Hg10 mi
8:52 AM44 °FPartly sunny.3 mph49%30.24 "Hg10 mi
7:52 AM41 °FScattered clouds.5 mph47%30.24 "Hg10 mi
6:52 AM41 °FPartly cloudy.5 mph45%30.24 "Hg10 mi
5:52 AM40 °FPassing clouds.6 mph45%30.23 "Hg10 mi
4:52 AM41 °FPassing clouds.5 mph41%30.22 "Hg10 mi
3:52 AM43 °FPassing clouds.8 mph38%30.22 "Hg10 mi
2:52 AM44 °FPassing clouds.10 mph35%30.23 "Hg10 mi
1:52 AM45 °FOvercast.12 mph34%30.25 "Hg10 mi
12:52 AM44 °FPassing clouds.8 mph37%30.24 "Hg10 mi
11:52 PM
Nov 22
46 °FOvercast.6 mph34%30.27 "Hg10 mi
10:52 PM46 °FOvercast.8 mph37%30.27 "Hg10 mi
9:52 PM44 °FOvercast.8 mph43%30.29 "Hg10 mi
8:52 PM44 °FPassing clouds.9 mph45%30.29 "Hg10 mi
7:52 PM42 °FClear.8 mph53%30.30 "Hg10 mi
Weather by CustomWeather, © 2014

See weather overviewHow to use our weather pages